Arar current weather conditions

sailwx.info

Wind from 340 at 6 knots

Air temperature 23.0° C
Dewpoint 10.0° C

Last reported at 2014-Sep-23 00:00 UTC.
Time now 2014-Sep-23 02:19 UTC

Location: N 30°54' E 041°08'.
View on Google Maps.

See reports from other nearby stations

  
Tides and Currents Weather Stations Pressure Air Temp Water Temp Dewpoint Dewpoint Depression Visibility Wind Speed Wind Dir Waves Ship Positions
date/time (UTC)wind fromknots sea level pressurealtimeterstation pressurevisibilityair tempwater tempwave heightnotes
2014-Sep-23 01:00 320 6 22.0
2014-Sep-23 00:00 340 6 23.0
2014-Sep-22 23:00 320 7 24.0
2014-Sep-22 22:00 330 9 25.0
2014-Sep-22 21:00 330 10 27.0
2014-Sep-22 20:00 330 9 28.0
2014-Sep-22 19:00 330 10 29.0
2014-Sep-22 18:00 260 2 30.0
2014-Sep-22 17:00 240 2 31.0
2014-Sep-22 16:00 280 3 32.0
2014-Sep-22 15:00 280 6 34.0
2014-Sep-22 14:00 280 6 36.0
2014-Sep-22 13:00 280 10 36.0
2014-Sep-22 12:00 300 4 36.0
2014-Sep-22 11:00 270 6 36.0
2014-Sep-22 10:00 280 4 35.0
2014-Sep-22 09:00 310 4 34.0
2014-Sep-22 08:00 310 4 33.0
2014-Sep-22 07:00 020 4 31.0
2014-Sep-22 06:00 330 8 29.0
2014-Sep-22 05:00 340 10 25.0
2014-Sep-22 04:00 330 6 23.0
2014-Sep-22 03:00 010 9 22.0
2014-Sep-22 02:00 310 9 23.0
2014-Sep-22 01:00 310 9 24.0
2014-Sep-22 00:00 300 9 25.0
2014-Sep-21 23:00 300 10 25.0
2014-Sep-21 22:00 290 9 26.0
2014-Sep-21 21:00 260 6 27.0
2014-Sep-21 20:00 27.0
2014-Sep-21 19:00 160 4 28.0
2014-Sep-21 18:00 150 5 29.0
2014-Sep-21 17:00 130 6 30.0
2014-Sep-21 16:00 100 4 32.0
2014-Sep-21 15:00 34.0
2014-Sep-21 14:00 340 4 34.0
2014-Sep-21 13:00 240 4 35.0
2014-Sep-21 12:00 280 10 35.0
2014-Sep-21 11:00 330 4 35.0
2014-Sep-21 10:00 050 6 34.0
2014-Sep-21 09:00 050 6 34.0
2014-Sep-21 08:00 040 10 33.0
2014-Sep-21 07:00 040 10 31.0
2014-Sep-21 06:00 040 8 29.0
2014-Sep-21 05:00 340 6 26.0
2014-Sep-21 04:00 300 4 23.0
2014-Sep-21 03:00 320 7 22.0
2014-Sep-21 02:00 310 6 22.0